| time (UTC) | temp F | wind direction | speed MPH | gust MPH | rain 1hr in | rain 24hr in | rain mn in | humidity % | barometer mb |
| 20260503184505 | 59 | 120 | 6.0 | 12.0 | 0.00 | 0.00 | 0.00 | 38 | 1014.3 |
| 20260503183004 | 58 | 249 | 3.0 | 16.0 | 0.00 | 0.00 | 0.00 | 38 | 1014.2 |
| 20260503181503 | 58 | 125 | 6.0 | 14.0 | 0.00 | 0.00 | 0.00 | 39 | 1014.4 |
| 20260503180003 | 58 | 101 | 6.0 | 12.0 | 0.00 | 0.00 | 0.00 | 38 | 1014.4 |
| 20260503174529 | 58 | 121 | 3.0 | 10.0 | 0.00 | 0.00 | 0.00 | 39 | 1014.4 |
| 20260503173027 | 57 | 145 | 3.0 | 8.0 | 0.00 | 0.00 | 0.00 | 40 | 1014.6 |
| 20260503171555 | 56 | 115 | 3.0 | 8.0 | 0.00 | 0.00 | 0.00 | 40 | 1014.8 |
| 20260503081534 | 37 | 164 | 3.0 | 8.0 | 0.00 | 0.00 | 0.00 | 72 | 1014.8 |
| 20260503071526 | 37 | 30 | 2.0 | 3.0 | 0.00 | 0.00 | 0.00 | 72 | 1014.3 |
| 20260503054553 | 39 | 131 | 1.0 | 4.0 | 0.00 | 0.00 | 0.00 | 73 | 1014.4 |
| 20260503053046 | 39 | 195 | 1.0 | 7.0 | 0.00 | 0.00 | 0.00 | 73 | 1014.3 |
| 20260503051543 | 39 | 137 | 0.0 | 3.0 | 0.00 | 0.00 | 0.00 | 73 | 1014.2 |
| 20260503050042 | 39 | 121 | 1.0 | 4.0 | 0.00 | 0.00 | 0.00 | 73 | 1014.4 |
| 20260503044542 | 39 | 255 | 0.0 | 0.0 | 0.00 | 0.00 | 0.00 | 75 | 1014.6 |
| 20260503043035 | 40 | 273 | 0.0 | 2.0 | 0.00 | 0.00 | 0.00 | 70 | 1014.4 |
| 20260503041532 | 41 | 286 | 2.0 | 5.0 | 0.00 | 0.00 | 0.00 | 71 | 1014.5 |
| 20260503040035 | 41 | 155 | 1.0 | 4.0 | 0.00 | 0.00 | 0.00 | 71 | 1014.6 |
| 20260503034535 | 42 | 159 | 1.0 | 3.0 | 0.00 | 0.00 | 0.00 | 71 | 1014.4 |
| 20260503033123 | 42 | 222 | 2.0 | 5.0 | 0.00 | 0.00 | 0.00 | 70 | 1014.4 |
| 20260503031558 | 42 | 191 | 0.0 | 5.0 | 0.00 | 0.00 | 0.00 | 72 | 1014.7 |
| 20260503030023 | 42 | 148 | 1.0 | 4.0 | 0.00 | 0.00 | 0.00 | 71 | 1014.8 |
| 20260503024520 | 42 | 171 | 0.0 | 6.0 | 0.00 | 0.00 | 0.00 | 72 | 1014.9 |
| 20260503023115 | 42 | 136 | 0.0 | 4.0 | 0.00 | 0.00 | 0.00 | 72 | 1014.9 |
| 20260503021551 | 43 | 319 | 2.0 | 14.0 | 0.00 | 0.00 | 0.00 | 71 | 1014.9 |
| 20260503020047 | 43 | 150 | 0.0 | 2.0 | 0.00 | 0.00 | 0.00 | 71 | 1014.7 |
| 20260503014543 | 43 | 238 | 2.0 | 6.0 | 0.00 | 0.00 | 0.00 | 70 | 1014.7 |
| 20260503013040 | 43 | 200 | 1.0 | 5.0 | 0.00 | 0.00 | 0.00 | 70 | 1014.7 |
| 20260503011541 | 43 | 149 | 2.0 | 4.0 | 0.00 | 0.00 | 0.00 | 68 | 1014.5 |
| 20260503010035 | 44 | 151 | 1.0 | 7.0 | 0.00 | 0.00 | 0.00 | 68 | 1014.3 |
| 20260503004523 | 44 | 252 | 3.0 | 7.0 | 0.00 | 0.00 | 0.00 | 67 | 1014.2 |
| 20260503003020 | 44 | 152 | 1.0 | 6.0 | 0.00 | 0.00 | 0.00 | 69 | 1014.1 |
| 20260503001519 | 44 | 120 | 2.0 | 9.0 | 0.00 | 0.00 | 0.00 | 68 | 1014.0 |
| 20260503000017 | 45 | 186 | 0.0 | 3.0 | 0.00 | 0.00 | 0.00 | 66 | 1013.9 |
| 20260502234516 | 45 | 254 | 2.0 | 7.0 | 0.00 | 0.00 | 0.00 | 65 | 1013.7 |
| 20260502231516 | 46 | 224 | 3.0 | 14.0 | 0.00 | 0.00 | 0.00 | 64 | 1013.6 |
| 20260502230013 | 47 | 149 | 1.0 | 14.0 | 0.00 | 0.00 | 0.00 | 65 | 1013.4 |
| 20260502224510 | 47 | 236 | 3.0 | 5.0 | 0.00 | 0.00 | 0.00 | 63 | 1013.3 |
| 20260502221601 | 49 | 233 | 1.0 | 6.0 | 0.00 | 0.00 | 0.00 | 60 | 1013.1 |
| 20260502220049 | 49 | 113 | 1.0 | 8.0 | 0.00 | 0.00 | 0.00 | 59 | 1012.9 |
| 20260502214554 | 50 | 203 | 3.0 | 9.0 | 0.00 | 0.00 | 0.00 | 57 | 1012.8 |
| 20260502211547 | 49 | 210 | 2.0 | 11.0 | 0.00 | 0.00 | 0.00 | 57 | 1012.7 |
| 20260502210045 | 50 | 258 | 2.0 | 6.0 | 0.00 | 0.00 | 0.00 | 58 | 1012.2 |
| 20260502204549 | 51 | 232 | 0.0 | 4.0 | 0.00 | 0.00 | 0.00 | 56 | 1012.0 |
| 20260502203044 | 50 | 280 | 1.0 | 3.0 | 0.00 | 0.00 | 0.00 | 58 | 1012.3 |
| 20260502201533 | 50 | 300 | 1.0 | 6.0 | 0.00 | 0.00 | 0.00 | 58 | 1012.5 |
| 20260502200032 | 50 | 191 | 2.0 | 6.0 | 0.00 | 0.00 | 0.00 | 56 | 1012.6 |
| 20260502194531 | 51 | 122 | 1.0 | 6.0 | 0.00 | 0.00 | 0.00 | 54 | 1012.7 |
| 20260502193031 | 51 | 134 | 2.0 | 6.0 | 0.00 | 0.00 | 0.00 | 53 | 1012.7 |
| 20260502191559 | 50 | 226 | 1.0 | 4.0 | 0.00 | 0.00 | 0.00 | 53 | 1013.0 |
| 20260502190058 | 51 | 135 | 1.0 | 8.0 | 0.00 | 0.00 | 0.00 | 54 | 1013.3 |